Powrót do katalogu

HAWK-5C

AktywnyNaukaPO
NORAD 52754·PAYLOAD·🇺🇸 United States

Wystrzelony May 25, 2022 z Cape Canaveral Space Force Station

Loading…

Następne Przeloty (najbliższe 24 godziny)

TLE

ŚwieżeSource: Space-Track

Epoka: Sep 14, 2026, 22:30 UTC

1 52754U 22057Y   26257.93801385  .00019090  00000-0  29360-3 0  9990
2 52754  97.6681  63.6492 0004826 101.1640 259.0156 15.54274412240273

Śledź HAWK-5C w czasie rzeczywistym z AllMySat

Download on the App Store